Theta_e
316 316 318 318 318 318 318 318 318 318 317 316 316 316 317 316 315 317 320 324 329 337 346 358 355 356 360 362 362 364 352 356 357 361 361 354 353 352 350 346 348 348 342 342 345
312 315 317 317 317 318 318 318 318 318 317 317 316 315 316 315 318 320 321 322 329 335 352 350 349 355 356 354 357 354 355 354 350 353 359 352 354 354 350 354 354 345 343 344 344
309 311 314 315 316 317 317 318 318 318 318 317 316 315 316 315 321 322 323 323 328 334 335 340 343 346 343 348 351 346 352 350 349 350 355 352 354 353 351 355 351 347 346 345 344
306 308 310 312 313 315 316 317 318 318 318 317 315 315 316 319 324 323 323 325 328 335 326 327 334 333 338 345 344 350 348 350 351 354 354 352 353 353 352 355 351 343 344 344 345
305 306 307 308 309 312 316 317 318 318 318 317 315 316 317 316 317 320 327 327 334 335 327 329 333 334 338 345 346 348 347 349 349 351 352 352 355 354 355 349 346 342 343 344 345
304 305 306 306 307 311 316 317 318 318 318 317 315 316 316 317 316 327 326 328 330 331 329 330 334 333 339 344 348 348 349 350 349 352 353 356 356 354 354 344 343 342 343 344 345
304 304 305 306 307 311 314 317 318 318 319 318 316 316 317 318 317 320 318 321 328 329 331 331 331 331 339 347 343 345 349 350 350 352 354 354 358 357 353 345 344 343 343 344 345
304 304 305 306 308 311 313 317 320 321 322 318 316 316 318 316 317 318 320 320 320 327 327 328 328 336 344 343 344 347 347 354 349 349 354 349 356 355 352 350 345 343 344 344 345
304 305 306 307 309 312 316 321 322 322 319 317 319 320 318 316 319 321 320 321 319 320 321 324 329 336 340 347 348 345 352 350 346 348 351 352 355 355 354 350 350 347 346 346 346
304 305 307 308 310 314 320 322 321 322 322 323 322 317 317 317 319 322 320 319 320 321 324 327 329 335 337 342 351 350 339 343 344 348 350 351 352 352 355 352 352 351 351 351 350
305 308 310 311 312 316 321 320 322 320 320 322 318 316 318 321 321 321 319 318 320 322 323 326 332 337 338 338 335 336 337 337 338 347 351 352 352 353 357 355 353 353 353 352 352
308 311 313 313 314 319 320 322 320 319 323 319 319 319 318 320 322 321 318 320 321 321 323 328 333 334 331 333 334 334 336 337 338 348 351 351 352 350 358 357 355 353 352 353 352
311 314 315 314 317 318 319 319 317 317 322 320 319 320 320 321 321 321 319 317 319 320 323 325 329 327 331 331 333 334 336 335 335 350 350 352 347 353 353 356 355 354 352 351 352
314 316 316 315 316 316 319 317 317 317 321 321 321 320 320 321 322 321 319 319 319 320 322 323 322 328 329 331 333 335 331 331 333 339 333 346 337 345 351 355 355 355 354 352 352
314 317 317 315 313 318 319 317 316 315 325 323 320 318 318 321 318 319 317 321 321 319 320 321 324 324 326 329 329 333 330 329 331 338 342 344 343 341 345 347 350 353 353 352 351
316 318 316 315 314 317 317 318 315 321 326 324 320 321 321 319 320 318 320 319 318 319 319 320 318 321 325 325 328 325 326 328 339 342 338 340 342 339 346 350 346 347 349 350 351
319 319 319 315 317 316 319 318 322 326 323 325 323 321 317 319 320 319 320 321 322 321 322 320 321 319 321 322 321 322 323 333 334 340 338 338 346 339 341 343 342 342 345 347 349
319 320 321 320 319 318 316 320 328 324 325 321 323 319 322 320 321 319 319 321 317 319 319 320 320 319 320 322 322 322 323 330 338 336 336 342 345 340 342 341 341 342 343 344 345
323 321 321 317 320 319 317 320 325 324 323 324 322 323 324 322 322 323 325 325 320 317 321 320 320 318 317 320 322 324 324 323 326 326 331 332 341 339 340 341 343 345 345 347 345
324 321 321 319 319 316 323 320 323 320 321 325 323 322 325 323 324 323 326 325 329 324 316 319 321 320 320 319 319 323 323 324 326 330 331 331 335 334 339 340 338 345 346 348 348
323 326 322 321 319 326 330 328 325 324 322 326 324 323 322 324 322 327 330 325 329 330 315 316 317 323 318 320 321 321 322 322 323 325 327 329 329 335 341 339 336 335 346 348 348
321 327 321 322 327 321 327 324 321 326 326 324 321 322 322 328 325 329 332 331 329 328 331 320 318 322 323 317 315 319 322 322 323 325 325 326 326 327 331 332 336 338 342 346 347
328 327 320 319 329 325 322 323 324 327 329 329 332 329 327 331 330 331 331 329 328 330 331 326 326 329 326 319 318 319 319 321 320 320 326 324 324 330 326 331 339 340 342 346 348
322 330 323 318 316 321 323 322 324 321 327 327 328 329 330 331 330 332 331 330 329 328 331 325 320 332 333 332 329 331 324 318 320 322 323 323 324 329 330 338 342 335 342 343 348
312 316 312 325 321 319 318 319 320 323 321 321 326 325 331 333 331 331 330 328 329 327 329 328 331 328 328 327 325 326 324 320 320 323 324 324 327 331 332 343 344 339 338 343 347
314 314 312 314 316 316 314 318 318 319 320 322 322 322 328 331 324 323 322 325 331 330 330 327 333 331 332 330 330 330 327 321 320 321 322 323 324 335 345 345 348 348 342 345 346
310 309 313 309 315 316 318 317 317 317 319 320 316 318 320 324 315 315 315 318 325 330 331 330 330 333 332 332 331 333 333 335 330 341 332 330 337 346 348 348 349 350 346 346 347
Wind_Speed
18 18 17 17 18 19 19 20 21 22 22 23 23 22 23 25 19 4 4 2 9 20 11 14 6 6 7 2 3 1 1 2 4 5 4 8 6 4 4 13 5 3 6 16 27
18 18 17 18 18 19 19 20 21 21 22 21 23 21 23 25 10 4 2 6 9 21 15 13 5 9 2 1 2 2 1 2 5 7 8 8 8 8 7 9 4 8 13 25 26
19 19 18 19 19 19 20 20 21 21 21 21 21 20 22 17 3 1 7 9 11 15 4 5 9 4 2 2 3 2 3 3 3 5 15 11 6 4 10 8 8 15 22 25 23
19 19 19 19 20 20 20 20 20 21 20 20 19 18 18 5 4 1 9 7 15 15 5 7 7 2 1 2 3 2 6 3 5 7 10 11 8 4 3 2 4 17 26 23 22
20 19 19 20 20 21 20 20 20 21 20 18 17 15 6 3 4 3 3 10 15 12 6 4 2 1 1 1 5 4 4 6 9 7 8 9 6 5 1 4 12 19 21 21 20
20 20 20 20 21 21 20 20 21 21 19 17 12 9 2 4 1 6 7 8 7 8 3 6 2 2 2 3 4 5 11 11 8 9 8 6 4 3 4 11 15 20 20 18 19
21 20 21 21 21 20 20 21 21 22 19 11 6 3 1 10 4 5 8 2 7 7 3 1 2 2 2 5 4 4 9 8 4 5 4 7 4 6 14 14 16 17 16 15 16
22 22 21 21 20 20 21 21 21 15 9 2 2 1 6 2 4 11 11 6 10 9 8 5 2 4 2 5 4 3 1 1 5 4 7 2 5 6 15 16 17 17 14 14 16
23 22 21 20 19 20 20 18 6 4 3 4 2 0 6 3 2 1 4 4 5 5 4 1 2 3 3 6 4 1 3 3 2 9 6 8 6 5 14 13 15 16 15 14 14
24 22 20 18 17 18 16 2 5 4 4 3 1 3 2 2 5 10 3 6 3 4 2 1 3 4 3 5 3 4 3 2 6 5 11 10 17 4 15 15 15 15 15 15 16
25 23 19 16 15 12 10 1 2 2 1 3 0 4 3 12 4 3 1 6 4 3 6 2 5 9 12 7 4 3 2 6 8 5 8 15 14 9 18 16 16 16 16 17 18
27 22 17 14 11 3 6 4 4 2 5 2 7 8 9 3 4 2 1 5 4 6 4 4 12 10 6 7 5 4 2 3 6 1 8 6 13 9 18 22 21 18 18 18 18
26 19 14 12 4 3 6 7 7 4 2 4 3 3 3 7 5 4 4 3 3 7 11 10 5 5 8 7 7 5 5 3 5 1 6 8 8 5 9 16 18 19 17 18 18
21 18 13 8 3 3 3 5 11 10 2 6 1 0 2 2 3 4 2 1 2 7 8 5 2 4 6 7 8 14 10 6 4 3 5 2 8 11 6 12 18 21 21 21 19
20 15 9 6 2 1 2 13 4 3 3 11 2 3 1 3 5 2 1 2 5 5 4 4 4 6 7 8 8 4 5 5 4 3 3 4 4 9 1 7 17 22 24 23 20
18 10 5 3 2 2 12 6 3 2 4 5 3 5 1 2 2 2 2 4 3 4 2 1 1 2 2 2 9 5 3 2 2 1 6 2 7 11 4 7 2 7 21 24 23
11 8 5 3 2 8 10 1 1 4 2 8 4 5 2 5 5 5 3 3 4 3 2 2 7 3 4 5 3 3 6 7 7 6 8 2 5 11 15 14 11 10 9 20 23
8 9 8 9 8 9 3 1 6 1 3 2 3 3 5 7 8 8 3 2 4 2 2 3 6 8 8 15 10 11 14 9 14 10 10 4 6 6 12 14 7 6 8 12 18
6 6 7 11 11 9 1 4 2 1 3 7 3 5 7 5 3 3 9 5 3 1 4 4 5 3 5 3 8 6 7 4 5 1 4 3 5 11 13 16 8 7 7 9 14
2 2 7 10 14 3 3 3 1 2 4 2 4 3 5 8 3 2 5 4 7 3 5 1 5 6 2 5 3 5 8 5 2 7 11 5 3 6 5 9 5 5 9 10 13
3 2 11 14 7 4 4 3 3 3 3 1 3 3 3 4 3 3 4 2 6 7 0 2 3 2 2 8 12 6 4 1 2 3 7 9 5 9 11 11 10 6 9 10 13
2 2 13 13 3 2 2 5 5 5 5 1 1 4 3 6 3 3 3 3 7 4 5 2 2 5 6 0 5 8 14 13 9 10 3 4 8 8 11 10 8 11 5 11 12
2 2 6 5 3 3 3 3 2 7 7 5 5 5 3 3 1 2 4 4 4 5 6 1 2 4 3 4 3 3 3 10 6 3 11 11 7 4 2 7 8 12 4 7 11
1 1 3 4 2 2 3 3 3 5 3 3 4 2 2 3 3 1 3 3 12 4 4 3 3 2 3 6 6 8 7 7 15 10 14 12 14 11 7 7 9 11 7 8 13
5 2 1 2 3 3 1 2 3 4 3 7 2 7 2 2 4 2 3 8 8 1 4 3 6 4 8 10 5 7 11 8 15 13 10 12 12 7 4 12 10 10 10 8 14
2 1 1 2 1 1 1 1 2 4 2 2 3 8 3 2 2 3 4 3 5 3 6 1 5 3 7 5 8 11 6 8 12 13 10 11 13 3 14 10 9 10 10 12 13
4 1 2 2 1 1 1 1 1 4 3 2 5 6 8 4 7 12 13 14 14 8 7 4 4 4 8 4 11 10 3 6 4 4 3 6 5 12 15 13 11 10 11 12 13
Wind_Direction
356 353 352 350 349 348 348 347 346 346 347 345 344 344 342 336 338 325 251 226 171 168 157 145 159 163 174 241 232 221 113 105 160 177 137 147 135 117 122 144 159 140 145 142 154
351 350 347 346 345 344 343 342 341 342 341 342 341 342 341 335 331 237 269 187 183 166 150 163 170 159 182 249 205 230 44 96 170 160 159 163 155 138 145 159 129 109 120 139 155
348 346 344 343 342 340 339 338 337 336 336 338 338 341 338 335 292 44 359 210 194 172 166 166 143 174 153 197 206 155 27 135 100 153 149 159 157 153 155 192 192 164 149 152 164
348 345 344 341 339 337 335 333 332 330 330 332 335 338 336 345 179 299 352 172 187 176 155 159 157 209 264 151 191 161 49 71 122 137 147 162 149 157 179 334 189 168 156 159 171
347 345 343 340 338 335 332 329 327 325 324 325 330 338 353 325 252 332 54 143 181 198 210 191 199 201 141 174 129 83 72 67 118 145 150 150 179 163 170 69 128 150 160 170 177
347 343 340 339 337 332 328 325 322 319 315 316 319 334 10 283 271 118 92 146 182 223 233 193 204 235 66 51 47 97 101 121 115 139 152 183 165 184 123 130 137 156 172 177 186
346 342 339 337 334 330 326 323 319 312 306 302 294 335 138 253 230 196 315 232 220 215 288 205 237 228 131 112 122 118 100 110 133 144 155 147 183 229 148 151 152 169 180 187 194
345 340 337 335 332 328 326 324 315 308 301 251 193 117 254 214 234 278 282 249 231 228 249 277 225 102 48 121 66 79 64 154 179 162 159 27 282 158 164 161 163 176 188 201 206
343 338 334 332 331 329 330 326 347 4 79 112 87 209 264 302 255 283 280 241 185 212 255 127 89 76 130 139 125 42 294 240 266 210 166 205 298 143 175 185 174 182 193 203 213
341 337 333 332 333 332 338 51 60 63 77 67 42 280 274 7 307 305 255 222 196 149 162 8 83 143 136 188 182 214 304 269 279 216 217 205 247 171 185 196 196 193 196 201 209
340 337 336 336 335 334 3 329 324 175 35 249 85 285 295 328 296 227 203 162 140 120 197 53 216 214 219 200 160 190 199 302 298 211 225 238 256 211 186 201 209 204 207 208 216
341 336 337 337 334 347 32 78 98 322 310 263 258 268 265 263 292 267 190 176 170 179 148 162 221 220 123 170 199 206 239 297 293 254 220 285 265 236 194 203 206 208 210 213 223
341 339 341 341 343 43 82 119 336 184 272 303 258 262 293 189 223 261 190 154 145 156 191 202 199 169 182 166 200 223 246 240 290 184 254 298 282 197 206 215 213 222 222 223 221
346 345 345 354 94 16 114 339 328 173 9 13 22 94 162 211 238 240 230 168 94 197 165 226 337 186 197 214 206 264 211 246 259 254 314 314 301 299 183 205 212 216 219 221 221
344 339 344 350 331 162 335 337 115 182 93 334 44 341 60 256 319 61 321 173 151 127 197 140 169 185 216 230 186 268 169 249 258 243 250 198 252 277 254 258 226 217 216 219 215
349 357 354 34 353 335 324 348 158 265 56 2 2 357 304 351 338 358 113 58 79 110 120 209 310 247 176 293 213 128 174 82 76 196 260 25 234 283 281 246 337 211 219 218 215
8 25 43 62 7 335 344 133 244 49 309 359 343 357 353 9 34 22 83 122 200 202 247 297 234 204 177 235 254 202 215 239 231 225 257 69 204 253 286 272 279 281 223 214 213
29 39 50 23 332 323 348 166 69 314 330 354 340 324 54 358 51 30 74 55 54 22 170 266 255 206 178 215 219 216 229 230 244 236 246 139 216 247 266 285 271 255 250 219 210
49 48 38 15 23 356 45 59 81 298 330 330 307 52 34 29 56 72 58 39 342 262 256 197 252 283 228 222 207 163 209 282 234 52 260 229 247 278 267 273 263 247 220 199 200
68 65 18 351 343 360 70 92 348 261 315 314 50 27 42 7 53 58 35 18 353 353 250 129 273 248 224 183 63 248 141 193 224 236 246 225 246 247 253 267 286 266 216 195 192
53 65 356 349 351 45 61 21 307 293 263 346 41 56 53 11 16 56 24 96 8 356 324 197 232 200 224 204 218 204 213 90 223 241 256 259 245 224 241 255 277 273 242 202 189
45 64 345 352 47 38 29 335 333 330 20 17 358 34 39 29 37 90 51 344 357 339 350 11 242 265 260 31 315 278 240 232 237 223 244 273 249 288 249 279 279 278 252 212 198
54 347 351 354 66 36 332 352 313 355 17 21 43 26 28 40 57 52 354 337 348 336 351 154 254 284 267 135 132 252 232 235 229 245 228 244 248 251 296 300 289 283 313 219 201
49 57 21 53 27 52 3 13 356 359 62 15 34 62 29 26 20 359 332 330 331 328 37 222 210 263 293 298 302 282 264 242 242 234 242 239 256 267 247 309 323 304 273 208 190
16 68 34 29 60 43 331 334 342 6 21 16 85 39 353 315 339 359 317 319 306 44 3 325 266 206 273 276 227 262 266 260 228 244 230 264 210 259 324 323 319 302 281 217 194
49 5 81 91 297 252 8 66 344 334 305 9 37 343 333 255 203 278 307 280 276 290 313 342 279 231 285 217 268 293 274 244 238 243 253 265 274 341 316 311 310 305 275 240 211
39 73 288 32 31 244 118 349 296 344 230 263 24 319 290 276 302 282 269 263 258 274 277 278 271 252 267 313 308 265 337 272 235 227 232 247 300 322 315 311 318 312 295 264 233